Regional Weather Roundup
Issued by NWS Jackson, KY

Home | Current Version | Previous Version | Graphics & Text | Print | Product List | Glossary On
Versions: 1 2 3 4 5 6 7 8 9 10 11 12 13 14 15 16 17 18 19 20 21 22 23 24 25 26 27 28 29 30 31 32 33 34 35 36 37 38 39 40 41 42 43 44 45 46 47 48 49 50
000
ASUS43 KJKL 241819
RWRJKL

EAST KENTUCKY HOURLY WEATHER ROUNDUP
NATIONAL WEATHER SERVICE JACKSON KY
100 PM EST WED DEC 24 2014

NOTE: "FAIR" INDICATES FEW OR NO CLOUDS BELOW 12,000 FEET WITH
NO SIGNIFICANT WEATHER AND/OR OBSTRUCTIONS TO VISIBILITY.

* THESE REPORTS ARE NOT UNDER NWS QUALITY CONTROL AND MAY NOT
  REPORT WEATHER SUCH AS PRECIPITATION AND FOG.

KYZ079-080-083-085-087-088-110-112-115-119-120-241900
...EASTERN KENTUCKY...

CITY           SKY/WX    TMP DP  RH WIND       PRES   REMARKS
JACKSON        CLOUDY    64  54  69 VRB6      29.49F
6HR MIN TEMP:  56; 6HR MAX TEMP:  65; 6HR PCP: TRACE;

LONDON         CLOUDY    63  52  67 S12G21    29.50F
6HR MIN TEMP:  56; 6HR MAX TEMP:  63; 6HR PCP: TRACE;

SOMERSET*      CLOUDY    59  55  88 S10G16    29.49F
MONTICELLO*    CLOUDY    63  56  78 S16       29.51F
6HR MIN TEMP:  58; 6HR MAX TEMP:  63;

MIDDLESBORO*   CLOUDY    59  55  87 S7        29.56F
6HR MIN TEMP:  53; 6HR MAX TEMP:  60; 6HR PCP:  0.15;

HARLAN APT*    CLOUDY    59  54  82 E5        29.55F
HAZARD APT*    CLEAR     64  55  72 S5        29.49
BLACK MTN*       N/A     52  52 100 SE5         N/A
PIKEVILLE APT* SUNNY     63  54  72 S10G20    29.50F
BIG SANDY*     CLOUDY    63  55  74 S6        29.49F
6HR MIN TEMP:  57; 6HR MAX TEMP:  63;

MOREHEAD APT*  CLOUDY    61  55  82 S7        29.47F
ASHLAND*       MOSUNNY  N/A N/A N/A CALM      29.44F
$$

KYZ035-036-041-042-044-050-067-078-099-241900
...CENTRAL KENTUCKY...

CITY           SKY/WX    TMP DP  RH WIND       PRES   REMARKS
MT STERLING*   CLOUDY    61  55  82 SW15      29.46F
FLEMING/MASON* CLOUDY    59  55  88 S10       29.45F
DANVILLE*      CLOUDY    59  55  88 S10G21    29.45F
RICHMOND*      CLOUDY    61  54  77 S15G21    29.46F
LEXINGTON      CLOUDY    59  55  87 S14       29.42F
6HR MIN TEMP:  52; 6HR MAX TEMP:  60;

FRANKFORT      CLOUDY    58  55  90 S7        29.41F
6HR MIN TEMP:  52; 6HR MAX TEMP:  58; 6HR PCP:  0.01;

$$

KYZ091>093-OHZ055-061-077-WVZ005-015-034-035-042-241900
...SOUTHERN OHIO/WEST VIRGINIA...

CITY           SKY/WX    TMP DP  RH WIND       PRES   REMARKS
COVINGTON      CLOUDY    56  52  86 S9        29.40F FOG
COLUMBUS       CLOUDY    56  52  86 SE8       29.44F
DAYTON         CLOUDY    56  54  93 S14       29.40F
WILMINGTON     CLOUDY    55  53  93 S12       29.42F
HUNTINGTON     CLOUDY    60  55  83 CALM      29.47F
CHARLESTON     CLOUDY    65  51  60 SE9G17    29.45F
PINEVILLE*     CLOUDY    60  59  96 MISG      29.57F
BECKLEY        CLOUDY    54  51  90 SE17G25   29.60F
BLUEFIELD      CLOUDY    54  49  83 SE8G21    29.62F
$$

VAZ002-007-008-TNZ017-027-036-066-071-241900
...SOUTHWEST VIRGINIA/EAST TENNESSEE...

CITY           SKY/WX    TMP DP  RH WIND       PRES   REMARKS
WISE*          CLOUDY    57  55  94 SE5       29.59S
JONESVILLE*    CLOUDY    59  57  94 CALM      29.59F
ABINGDON*      CLOUDY    58  56  93 E12       29.60F
BRISTOL        CLOUDY    58  56  93 CALM      29.58F
KNOXVILLE      CLOUDY    57  55  93 W7        29.57F
OAK RIDGE      CLOUDY    58  55  90 CALM      29.58F
CROSSVILLE     CLOUDY    58  54  86 S15G24    29.56F
NASHVILLE      CLOUDY    46  43  89 W9G23     29.64S
$$

...KEY TO REMARKS...
VSB - VISIBILITY IN MILES
WCI - WIND CHILL INDEX
HX  - HEAT INDEX

$$



USA.gov is the U.S. government's official web portal to all federal, state and local government web resources and services.